WB5LFS-1 Weather Reports


Display with metric or nautical units.
time (UTC)temp
F
wind
direction
speed
MPH
gust
MPH
rain 1hr
in
rain 24hr
in
rain mn
in
humidity
%
barometer
mb
20260502151153 55 306 0.0 0.0 0.00 0.00 0.00 64 1013.8
20260502122653 53 0 0.0 3.0 0.00 0.00 0.00 75 1013.2
20260502121153 53 202 0.0 2.0 0.00 0.00 0.00 77 1013.1
20260502115653 53 290 0.0 3.0 0.00 0.00 0.00 79 1013.1
20260502114153 52 0 0.0 0.0 0.00 0.00 0.00 81 1013.2
20260502112653 52 0 0.0 0.0 0.00 0.00 0.00 82 1013.3
20260502111153 52 0 0.0 0.0 0.00 0.00 0.00 83 1013.4
20260502105653 52 0 0.0 0.0 0.00 0.00 0.00 83 1013.1
20260502104153 52 0 0.0 0.0 0.00 0.00 0.00 84 1012.9
20260502102653 51 0 0.0 0.0 0.00 0.00 0.00 86 1012.5
20260502101153 51 0 0.0 0.0 0.00 0.00 0.00 88 1012.6
20260502091153 51 0 0.0 0.0 0.00 0.00 0.00 89 1012.2
20260502071154 52 180 0.0 0.0 0.00 0.00 0.00 88 1012.1
20260502065654 52 180 0.0 0.0 0.00 0.00 0.00 88 1011.5
20260502064154 51 180 0.0 0.0 0.00 0.00 0.00 87 1011.4
20260502062654 51 180 0.0 0.0 0.00 0.00 0.00 87 1011.9
20260502061154 52 0 0.0 0.0 0.00 0.00 0.00 85 1012.1
20260502055654 52 181 0.0 0.0 0.00 0.00 0.00 84 1012.4
20260502054154 53 181 0.0 0.0 0.00 0.00 0.00 84 1012.5
20260502052654 53 0 0.0 0.0 0.00 0.00 0.00 83 1012.5
20260502051154 54 0 0.0 0.0 0.00 0.00 0.00 82 1012.7
20260502045654 54 0 0.0 0.0 0.00 0.00 0.00 81 1012.8
20260502044154 54 0 0.0 0.0 0.00 0.00 0.00 81 1013.0
20260502042654 55 0 0.0 0.0 0.00 0.00 0.00 80 1013.0
20260502041154 55 186 0.0 1.0 0.00 0.00 0.00 80 1013.0
20260502035654 55 0 0.0 0.0 0.00 0.00 0.00 79 1013.0
20260502034154 56 0 0.0 3.0 0.00 0.00 0.00 79 1013.3
20260502032654 56 0 0.0 3.0 0.00 0.00 0.00 78 1012.7
20260502031154 56 137 0.0 2.0 0.00 0.00 0.00 77 1012.4
20260502025654 56 36 0.0 4.0 0.00 0.00 0.00 76 1012.3
20260502024154 57 168 0.0 0.0 0.00 0.00 0.00 75 1012.4
20260502022654 57 144 1.0 3.0 0.00 0.00 0.00 74 1012.6
20260502021154 56 0 0.0 5.0 0.00 0.00 0.00 74 1012.6
20260502015654 56 193 0.0 2.0 0.00 0.00 0.00 75 1012.6
20260502014154 56 196 0.0 0.0 0.00 0.00 0.00 75 1012.4
20260502012654 55 0 0.0 0.0 0.00 0.00 0.00 75 1012.4
20260502011154 56 0 0.0 0.0 0.00 0.00 0.00 75 1012.3
20260502005654 56 0 0.0 0.0 0.00 0.00 0.00 74 1011.9
20260502004154 56 0 0.0 0.0 0.00 0.00 0.00 73 1011.8
20260502002654 57 0 0.0 0.0 0.00 0.00 0.00 71 1011.7
20260502001154 58 209 0.0 0.0 0.00 0.00 0.00 70 1011.7
20260501235654 59 0 0.0 2.0 0.00 0.00 0.00 68 1011.7
20260501234154 60 133 0.0 0.0 0.00 0.00 0.00 66 1011.7
20260501232654 61 0 0.0 2.0 0.00 0.00 0.00 64 1011.8
20260501231154 62 0 0.0 0.0 0.00 0.00 0.00 61 1011.7
20260501225654 65 0 0.0 4.0 0.00 0.00 0.00 53 1011.6
20260501224154 66 89 0.0 2.0 0.00 0.00 0.00 49 1011.6
20260501222654 68 143 0.0 0.0 0.00 0.00 0.00 45 1011.6
20260501221154 68 209 0.0 3.0 0.00 0.00 0.00 40 1011.6
20260501215654 68 175 0.0 0.0 0.00 0.00 0.00 38 1011.5
20260501214154 68 157 1.0 6.0 0.00 0.00 0.00 40 1011.6
20260501212654 68 253 1.0 4.0 0.00 0.00 0.00 44 1011.6
20260501211154 67 245 1.0 3.0 0.00 0.00 0.00 42 1011.7
20260501205654 67 195 1.0 4.0 0.00 0.00 0.00 41 1012.0
20260501204154 67 150 1.0 6.0 0.00 0.00 0.00 40 1012.1
20260501202654 67 175 2.0 8.0 0.00 0.00 0.00 39 1012.2
20260501201154 67 110 2.0 6.0 0.00 0.00 0.00 40 1012.4
20260501195654 67 205 1.0 4.0 0.00 0.00 0.00 44 1012.7
20260501194154 65 173 0.0 0.0 0.00 0.00 0.00 43 1012.8
20260501192654 65 67 1.0 4.0 0.00 0.00 0.00 41 1013.3
20260501191154 64 153 0.0 5.0 0.00 0.00 0.00 39 1013.7
20260501185654 64 76 2.0 6.0 0.00 0.00 0.00 39 1014.0
20260501184154 65 123 2.0 6.0 0.00 0.00 0.00 37 1014.0
20260501182654 65 175 2.0 5.0 0.00 0.00 0.00 42 1014.4
20260501181154 64 269 2.0 5.0 0.00 0.00 0.00 41 1014.4
20260501175655 64 223 3.0 6.0 0.00 0.00 0.00 44 1014.5
20260501174154 63 121 0.0 2.0 0.00 0.00 0.00 47 1014.6
20260501172655 64 140 0.0 2.0 0.00 0.00 0.00 49 1014.7
20260501171155 63 146 0.0 0.0 0.00 0.00 0.00 42 1014.6
20260501165655 63 0 1.0 4.0 0.00 0.00 0.00 41 1014.7
20260501164155 62 278 0.0 0.0 0.00 0.00 0.00 45 1014.9
20260501162655 63 349 0.0 0.0 0.00 0.00 0.00 40 1015.1
20260501161155 62 0 1.0 4.0 0.00 0.00 0.00 41 1015.2